Time,TemperatureF,DewpointF,PressureIn,WindDirection,WindDirectionDegrees,WindSpeedMPH,WindSpeedGustMPH,Humidity,HourlyPrecipIn,Conditions,Clouds,dailyrainin,SoftwareType,DateUTC
2013-06-01 00:00:00,49.5,44.6,30.15,SE,135,0.0,0.0,81,0.00,,,0.00,WeatherTracker,2013-06-01 07:00:00,
2013-06-01 00:10:00,49.5,44.6,30.15,SE,135,0.0,0.0,81,0.00,,,0.00,WeatherTracker,2013-06-01 07:10:00,
2013-06-01 00:15:00,49.6,44.6,30.15,ESE,112,0.0,0.0,81,0.00,,,0.00,WeatherTracker,2013-06-01 07:15:00,
2013-06-01 00:25:00,49.8,44.6,30.15,ESE,112,0.0,0.0,81,0.00,,,0.00,WeatherTracker,2013-06-01 07:25:00,
2013-06-01 00:30:00,49.8,44.6,30.15,ESE,112,0.0,0.0,81,0.00,,,0.00,WeatherTracker,2013-06-01 07:30:00,
2013-06-01 00:35:00,49.8,44.6,30.15,East,90,0.0,0.0,81,0.00,,,0.00,WeatherTracker,2013-06-01 07:35:00,
2013-06-01 00:40:00,50.0,44.6,30.15,East,90,0.0,0.0,80,0.00,,,0.00,WeatherTracker,2013-06-01 07:40:00,
2013-06-01 00:45:00,50.0,44.6,30.15,SE,135,0.0,0.0,80,0.00,,,0.00,WeatherTracker,2013-06-01 07:45:00,
2013-06-01 00:50:00,50.2,44.6,30.15,ESE,112,1.0,0.0,81,0.00,,,0.00,WeatherTracker,2013-06-01 07:50:00,
2013-06-01 00:55:00,50.2,44.6,30.15,SE,135,1.0,2.0,81,0.00,,,0.00,WeatherTracker,2013-06-01 07:55:00,
2013-06-01 01:00:00,50.2,44.6,30.15,ESE,112,0.0,0.0,81,0.00,,,0.00,WeatherTracker,2013-06-01 08:00:00,
2013-06-01 01:05:00,50.4,44.6,30.15,ESE,112,0.0,0.0,81,0.00,,,0.00,WeatherTracker,2013-06-01 08:05:00,
2013-06-01 01:10:00,50.5,44.6,30.15,SSE,157,1.0,0.0,81,0.00,,,0.00,WeatherTracker,2013-06-01 08:10:00,
2013-06-01 01:15:00,50.5,44.6,30.15,SE,135,0.0,0.0,81,0.00,,,0.00,WeatherTracker,2013-06-01 08:15:00,
2013-06-01 01:20:00,50.5,44.6,30.15,SE,135,0.0,0.0,81,0.00,,,0.00,WeatherTracker,2013-06-01 08:20:00,
2013-06-01 01:25:00,50.5,44.6,30.15,SE,135,0.0,0.0,81,0.00,,,0.00,WeatherTracker,2013-06-01 08:25:00,
2013-06-01 01:30:00,50.5,44.6,30.15,SE,135,0.0,0.0,81,0.00,,,0.00,WeatherTracker,2013-06-01 08:30:00,
2013-06-01 01:35:00,50.5,44.6,30.15,ESE,112,0.0,0.0,80,0.00,,,0.00,WeatherTracker,2013-06-01 08:35:00,
2013-06-01 01:40:00,50.7,44.6,30.15,East,90,0.0,0.0,80,0.00,,,0.00,WeatherTracker,2013-06-01 08:40:00,
2013-06-01 01:45:00,50.7,44.6,30.15,ESE,112,0.0,0.0,79,0.00,,,0.00,WeatherTracker,2013-06-01 08:45:00,
2013-06-01 01:55:00,50.9,44.6,30.15,ESE,112,0.0,0.0,79,0.00,,,0.00,WeatherTracker,2013-06-01 08:55:00,
2013-06-01 02:00:00,50.9,44.6,30.15,ESE,112,0.0,0.0,78,0.00,,,0.00,WeatherTracker,2013-06-01 09:00:00,
2013-06-01 02:05:00,50.9,44.6,30.15,ESE,112,0.0,0.0,78,0.00,,,0.00,WeatherTracker,2013-06-01 09:05:00,
2013-06-01 02:10:00,50.9,44.6,30.15,ESE,112,0.0,0.0,78,0.00,,,0.00,WeatherTracker,2013-06-01 09:10:00,
2013-06-01 02:15:00,51.1,44.6,30.15,East,90,0.0,1.0,78,0.00,,,0.00,WeatherTracker,2013-06-01 09:15:00,
2013-06-01 02:20:00,51.3,44.6,30.15,ESE,112,0.0,0.0,78,0.00,,,0.00,WeatherTracker,2013-06-01 09:20:00,
2013-06-01 02:25:00,51.4,44.6,30.15,ENE,67,0.0,0.0,78,0.00,,,0.00,WeatherTracker,2013-06-01 09:25:00,
2013-06-01 02:30:00,51.6,44.6,30.15,ENE,67,0.0,0.0,78,0.00,,,0.00,WeatherTracker,2013-06-01 09:30:00,
2013-06-01 02:35:00,51.6,44.6,30.15,SE,135,0.0,0.0,78,0.00,,,0.00,WeatherTracker,2013-06-01 09:35:00,
2013-06-01 02:40:00,51.8,44.6,30.15,SE,135,0.0,1.0,77,0.00,,,0.00,WeatherTracker,2013-06-01 09:40:00,
2013-06-01 02:45:00,51.8,44.6,30.15,ESE,112,1.0,1.0,77,0.00,,,0.00,WeatherTracker,2013-06-01 09:45:00,
2013-06-01 02:50:00,52.0,44.6,30.15,East,90,1.0,0.0,76,0.00,,,0.00,WeatherTracker,2013-06-01 09:50:00,
2013-06-01 02:55:00,52.2,44.6,30.15,East,90,0.0,0.0,76,0.00,,,0.00,WeatherTracker,2013-06-01 09:55:00,
2013-06-01 03:00:00,52.0,44.6,30.15,ESE,112,0.0,0.0,76,0.00,,,0.00,WeatherTracker,2013-06-01 10:00:00,
2013-06-01 03:05:00,52.2,44.6,30.15,East,90,0.0,0.0,75,0.00,,,0.00,WeatherTracker,2013-06-01 10:05:00,
2013-06-01 03:10:00,52.2,44.6,30.15,SE,135,0.0,0.0,75,0.00,,,0.00,WeatherTracker,2013-06-01 10:10:00,
2013-06-01 03:15:00,52.2,44.6,30.15,East,90,0.0,0.0,75,0.00,,,0.00,WeatherTracker,2013-06-01 10:15:00,
2013-06-01 03:20:00,52.2,44.6,30.15,East,90,0.0,0.0,75,0.00,,,0.00,WeatherTracker,2013-06-01 10:20:00,
2013-06-01 03:25:00,52.3,44.6,30.15,ESE,112,0.0,0.0,75,0.00,,,0.00,WeatherTracker,2013-06-01 10:25:00,
2013-06-01 03:30:00,52.5,44.6,30.15,East,90,2.0,0.0,74,0.00,,,0.00,WeatherTracker,2013-06-01 10:30:00,
2013-06-01 03:35:00,52.5,44.6,30.15,SE,135,0.0,1.0,74,0.00,,,0.00,WeatherTracker,2013-06-01 10:35:00,
2013-06-01 03:40:00,52.7,46.4,30.15,SE,135,1.0,0.0,75,0.00,,,0.00,WeatherTracker,2013-06-01 10:40:00,
2013-06-01 03:45:00,52.5,44.6,30.15,ESE,112,0.0,0.0,75,0.00,,,0.00,WeatherTracker,2013-06-01 10:45:00,
2013-06-01 03:50:00,52.7,46.4,30.15,South,180,1.0,0.0,75,0.00,,,0.00,WeatherTracker,2013-06-01 10:50:00,
2013-06-01 03:55:00,52.5,44.6,30.15,East,90,0.0,0.0,76,0.00,,,0.00,WeatherTracker,2013-06-01 10:55:00,
2013-06-01 04:00:00,52.3,44.6,30.15,East,90,0.0,0.0,76,0.00,,,0.00,WeatherTracker,2013-06-01 11:00:00,
2013-06-01 04:05:00,52.2,44.6,30.15,ESE,112,0.0,0.0,76,0.00,,,0.00,WeatherTracker,2013-06-01 11:05:00,
2013-06-01 04:10:00,52.2,46.4,30.15,SE,135,0.0,0.0,77,0.00,,,0.00,WeatherTracker,2013-06-01 11:10:00,
2013-06-01 04:15:00,52.2,46.4,30.15,SSE,157,0.0,1.0,77,0.00,,,0.00,WeatherTracker,2013-06-01 11:15:00,
2013-06-01 04:20:00,52.0,44.6,30.15,SE,135,0.0,0.0,78,0.00,,,0.00,WeatherTracker,2013-06-01 11:20:00,
2013-06-01 04:25:00,51.8,44.6,30.15,SE,135,0.0,0.0,78,0.00,,,0.00,WeatherTracker,2013-06-01 11:25:00,
2013-06-01 04:30:00,51.8,44.6,30.15,SE,135,0.0,1.0,78,0.00,,,0.00,WeatherTracker,2013-06-01 11:30:00,
2013-06-01 04:35:00,52.0,46.4,30.15,East,90,1.0,1.0,79,0.00,,,0.00,WeatherTracker,2013-06-01 11:35:00,
2013-06-01 04:40:00,51.8,44.6,30.15,ESE,112,0.0,0.0,78,0.00,,,0.00,WeatherTracker,2013-06-01 11:40:00,
2013-06-01 04:50:00,52.0,46.4,30.12,SE,135,0.0,0.0,79,0.00,,,0.00,WeatherTracker,2013-06-01 11:50:00,
2013-06-01 04:55:00,52.0,44.6,30.12,East,90,0.0,0.0,78,0.00,,,0.00,WeatherTracker,2013-06-01 11:55:00,
2013-06-01 05:00:00,52.0,44.6,30.12,ESE,112,0.0,0.0,78,0.00,,,0.00,WeatherTracker,2013-06-01 12:00:00,
2013-06-01 05:05:00,52.2,46.4,30.12,ESE,112,1.0,0.0,78,0.00,,,0.00,WeatherTracker,2013-06-01 12:05:00,
2013-06-01 05:10:00,52.5,46.4,30.12,SE,135,1.0,0.0,78,0.00,,,0.00,WeatherTracker,2013-06-01 12:10:00,
2013-06-01 05:15:00,52.7,46.4,30.12,SE,135,2.0,2.0,79,0.00,,,0.00,WeatherTracker,2013-06-01 12:15:00,
2013-06-01 05:20:00,52.9,48.2,30.12,SSE,157,1.0,1.0,80,0.00,,,0.00,WeatherTracker,2013-06-01 12:20:00,
2013-06-01 05:25:00,52.9,48.2,30.12,SW,225,1.0,3.0,81,0.00,,,0.00,WeatherTracker,2013-06-01 12:25:00,
2013-06-01 05:30:00,52.9,48.2,30.12,SSE,157,2.0,2.0,82,0.00,,,0.00,WeatherTracker,2013-06-01 12:30:00,
2013-06-01 05:35:00,53.1,48.2,30.12,SW,225,3.0,5.0,82,0.00,,,0.00,WeatherTracker,2013-06-01 12:35:00,
2013-06-01 05:40:00,53.2,48.2,30.12,SW,225,4.0,4.0,80,0.00,,,0.00,WeatherTracker,2013-06-01 12:40:00,
2013-06-01 05:50:00,53.4,48.2,30.12,South,180,2.0,2.0,79,0.00,,,0.00,WeatherTracker,2013-06-01 12:50:00,
2013-06-01 05:55:00,53.4,48.2,30.12,SE,135,2.0,2.0,79,0.00,,,0.00,WeatherTracker,2013-06-01 12:55:00,
2013-06-01 06:00:00,53.2,46.4,30.12,SSE,157,1.0,3.0,79,0.00,,,0.00,WeatherTracker,2013-06-01 13:00:00,
2013-06-01 06:05:00,53.4,48.2,30.15,SSE,157,4.0,4.0,81,0.00,,,0.00,WeatherTracker,2013-06-01 13:05:00,
2013-06-01 06:10:00,53.4,48.2,30.15,South,180,3.0,4.0,82,0.00,,,0.00,WeatherTracker,2013-06-01 13:10:00,
2013-06-01 06:15:00,53.4,48.2,30.15,East,90,2.0,2.0,81,0.00,,,0.00,WeatherTracker,2013-06-01 13:15:00,
2013-06-01 06:20:00,53.4,48.2,30.12,SE,135,2.0,2.0,81,0.00,,,0.00,WeatherTracker,2013-06-01 13:20:00,
2013-06-01 06:25:00,53.4,48.2,30.12,SE,135,2.0,2.0,80,0.00,,,0.00,WeatherTracker,2013-06-01 13:25:00,
2013-06-01 06:30:00,53.4,48.2,30.12,SSE,157,0.0,2.0,80,0.00,,,0.00,WeatherTracker,2013-06-01 13:30:00,
2013-06-01 06:35:00,53.6,48.2,30.12,SE,135,1.0,1.0,80,0.00,,,0.00,WeatherTracker,2013-06-01 13:35:00,
2013-06-01 06:40:00,53.6,48.2,30.12,South,180,3.0,4.0,80,0.00,,,0.00,WeatherTracker,2013-06-01 13:40:00,
2013-06-01 06:45:00,53.8,48.2,30.12,SSE,157,2.0,2.0,81,0.00,,,0.00,WeatherTracker,2013-06-01 13:45:00,
2013-06-01 06:50:00,54.1,48.2,30.12,SE,135,2.0,0.0,80,0.00,,,0.00,WeatherTracker,2013-06-01 13:50:00,
2013-06-01 06:55:00,54.5,50.0,30.12,SSE,157,1.0,0.0,80,0.00,,,0.00,WeatherTracker,2013-06-01 13:55:00,
2013-06-01 07:00:00,54.7,50.0,30.12,SE,135,1.0,0.0,80,0.00,,,0.00,WeatherTracker,2013-06-01 14:00:00,
2013-06-01 07:05:00,54.9,48.2,30.12,East,90,0.0,0.0,79,0.00,,,0.00,WeatherTracker,2013-06-01 14:05:00,
2013-06-01 07:10:00,54.9,48.2,30.12,SSE,157,1.0,3.0,78,0.00,,,0.00,WeatherTracker,2013-06-01 14:10:00,
2013-06-01 07:15:00,54.9,48.2,30.12,East,90,2.0,3.0,76,0.00,,,0.00,WeatherTracker,2013-06-01 14:15:00,
2013-06-01 07:20:00,54.9,48.2,30.12,SE,135,0.0,0.0,76,0.00,,,0.00,WeatherTracker,2013-06-01 14:20:00,
2013-06-01 07:25:00,54.9,48.2,30.12,ESE,112,0.0,0.0,75,0.00,,,0.00,WeatherTracker,2013-06-01 14:25:00,
2013-06-01 07:30:00,55.0,48.2,30.12,SE,135,1.0,2.0,76,0.00,,,0.00,WeatherTracker,2013-06-01 14:30:00,
2013-06-01 07:35:00,55.4,48.2,30.12,North,0,0.0,0.0,75,0.00,,,0.00,WeatherTracker,2013-06-01 14:35:00,
2013-06-01 07:40:00,55.4,48.2,30.12,North,0,0.0,0.0,75,0.00,,,0.00,WeatherTracker,2013-06-01 14:40:00,
2013-06-01 07:45:00,55.4,48.2,30.12,North,0,0.0,0.0,75,0.00,,,0.00,WeatherTracker,2013-06-01 14:45:00,
2013-06-01 07:50:00,55.6,48.2,30.15,North,0,0.0,0.0,75,0.00,,,0.00,WeatherTracker,2013-06-01 14:50:00,
2013-06-01 07:55:00,55.8,48.2,30.15,North,0,0.0,0.0,76,0.00,,,0.00,WeatherTracker,2013-06-01 14:55:00,
2013-06-01 08:00:00,55.8,48.2,30.15,NNE,22,0.0,0.0,76,0.00,,,0.00,WeatherTracker,2013-06-01 15:00:00,
2013-06-01 08:05:00,55.6,48.2,30.12,NNE,22,0.0,0.0,76,0.00,,,0.00,WeatherTracker,2013-06-01 15:05:00,
2013-06-01 08:10:00,55.4,48.2,30.12,NNE,22,0.0,0.0,76,0.00,,,0.00,WeatherTracker,2013-06-01 15:10:00,
2013-06-01 08:15:00,55.2,48.2,30.12,NNE,22,0.0,0.0,76,0.00,,,0.00,WeatherTracker,2013-06-01 15:15:00,
2013-06-01 08:20:00,55.0,48.2,30.12,NNE,22,0.0,0.0,77,0.00,,,0.00,WeatherTracker,2013-06-01 15:20:00,
2013-06-01 08:25:00,55.0,50.0,30.12,NNE,22,0.0,0.0,79,0.00,,,0.00,WeatherTracker,2013-06-01 15:25:00,
2013-06-01 08:30:00,55.0,50.0,30.12,NNE,22,0.0,0.0,80,0.00,,,0.00,WeatherTracker,2013-06-01 15:30:00,
2013-06-01 08:35:00,55.2,50.0,30.12,NNE,22,0.0,0.0,82,0.00,,,0.00,WeatherTracker,2013-06-01 15:35:00,
2013-06-01 08:40:00,55.2,50.0,30.12,NNE,22,0.0,0.0,82,0.00,,,0.00,WeatherTracker,2013-06-01 15:40:00,
2013-06-01 08:45:00,55.2,50.0,30.12,NNE,22,0.0,0.0,82,0.00,,,0.00,WeatherTracker,2013-06-01 15:45:00,
2013-06-01 08:50:00,55.6,50.0,30.12,NNE,22,0.0,0.0,82,0.00,,,0.00,WeatherTracker,2013-06-01 15:50:00,
2013-06-01 08:55:00,56.3,51.8,30.12,NNE,22,0.0,0.0,83,0.00,,,0.00,WeatherTracker,2013-06-01 15:55:00,
2013-06-01 09:00:00,57.0,51.8,30.12,South,180,0.0,0.0,83,0.00,,,0.00,WeatherTracker,2013-06-01 16:00:00,
2013-06-01 09:05:00,57.2,51.8,30.12,South,180,1.0,1.0,82,0.00,,,0.00,WeatherTracker,2013-06-01 16:05:00,
2013-06-01 09:10:00,57.0,51.8,30.12,SE,135,0.0,0.0,81,0.00,,,0.00,WeatherTracker,2013-06-01 16:10:00,
2013-06-01 09:15:00,56.8,51.8,30.12,East,90,0.0,0.0,80,0.00,,,0.00,WeatherTracker,2013-06-01 16:15:00,
2013-06-01 09:20:00,56.8,51.8,30.12,East,90,0.0,0.0,81,0.00,,,0.00,WeatherTracker,2013-06-01 16:20:00,
2013-06-01 09:25:00,57.0,51.8,30.12,East,90,0.0,0.0,81,0.00,,,0.00,WeatherTracker,2013-06-01 16:25:00,
2013-06-01 09:30:00,57.0,51.8,30.12,ESE,112,0.0,0.0,81,0.00,,,0.00,WeatherTracker,2013-06-01 16:30:00,
2013-06-01 09:35:00,57.0,51.8,30.12,ESE,112,0.0,0.0,81,0.00,,,0.00,WeatherTracker,2013-06-01 16:35:00,
2013-06-01 09:45:00,57.4,51.8,30.12,ESE,112,0.0,0.0,81,0.00,,,0.00,WeatherTracker,2013-06-01 16:45:00,
2013-06-01 09:50:00,57.4,51.8,30.12,SSE,157,1.0,0.0,80,0.00,,,0.00,WeatherTracker,2013-06-01 16:50:00,
2013-06-01 09:55:00,57.4,51.8,30.12,SE,135,0.0,0.0,80,0.00,,,0.00,WeatherTracker,2013-06-01 16:55:00,
2013-06-01 10:00:00,57.4,51.8,30.12,ESE,112,1.0,0.0,80,0.00,,,0.00,WeatherTracker,2013-06-01 17:00:00,
2013-06-01 10:05:00,57.2,51.8,30.12,SSE,157,1.0,0.0,79,0.00,,,0.00,WeatherTracker,2013-06-01 17:05:00,
2013-06-01 10:10:00,57.2,51.8,30.12,SE,135,1.0,0.0,79,0.00,,,0.00,WeatherTracker,2013-06-01 17:10:00,
2013-06-01 10:15:00,57.2,50.0,30.12,South,180,1.0,3.0,78,0.00,,,0.00,WeatherTracker,2013-06-01 17:15:00,
2013-06-01 10:20:00,57.2,50.0,30.12,SW,225,3.0,0.0,78,0.00,,,0.00,WeatherTracker,2013-06-01 17:20:00,
2013-06-01 10:25:00,57.4,50.0,30.12,ESE,112,2.0,3.0,76,0.00,,,0.00,WeatherTracker,2013-06-01 17:25:00,
2013-06-01 10:30:00,57.6,51.8,30.12,SE,135,3.0,3.0,77,0.00,,,0.00,WeatherTracker,2013-06-01 17:30:00,
2013-06-01 10:35:00,57.7,51.8,30.12,SE,135,2.0,3.0,77,0.00,,,0.00,WeatherTracker,2013-06-01 17:35:00,
2013-06-01 10:40:00,57.7,50.0,30.12,South,180,2.0,4.0,75,0.00,,,0.00,WeatherTracker,2013-06-01 17:40:00,
2013-06-01 10:45:00,57.7,50.0,30.12,SW,225,3.0,3.0,74,0.00,,,0.00,WeatherTracker,2013-06-01 17:45:00,
2013-06-01 10:50:00,57.7,50.0,30.12,South,180,3.0,3.0,74,0.00,,,0.00,WeatherTracker,2013-06-01 17:50:00,
2013-06-01 10:55:00,57.7,50.0,30.12,SE,135,2.0,4.0,76,0.00,,,0.00,WeatherTracker,2013-06-01 17:55:00,
2013-06-01 11:00:00,57.6,50.0,30.12,South,180,2.0,3.0,76,0.00,,,0.00,WeatherTracker,2013-06-01 18:00:00,
2013-06-01 11:05:00,57.4,50.0,30.12,South,180,3.0,3.0,76,0.00,,,0.00,WeatherTracker,2013-06-01 18:05:00,
2013-06-01 11:10:00,57.6,50.0,30.12,SSE,157,3.0,3.0,76,0.00,,,0.00,WeatherTracker,2013-06-01 18:10:00,
2013-06-01 11:15:00,57.7,50.0,30.12,East,90,3.0,4.0,76,0.00,,,0.00,WeatherTracker,2013-06-01 18:15:00,
2013-06-01 11:20:00,57.9,50.0,30.12,South,180,1.0,2.0,75,0.00,,,0.00,WeatherTracker,2013-06-01 18:20:00,
2013-06-01 11:25:00,57.7,50.0,30.12,SE,135,2.0,2.0,74,0.00,,,0.00,WeatherTracker,2013-06-01 18:25:00,
2013-06-01 11:30:00,57.9,50.0,30.12,South,180,3.0,3.0,74,0.00,,,0.00,WeatherTracker,2013-06-01 18:30:00,
2013-06-01 11:35:00,58.1,50.0,30.12,South,180,1.0,0.0,74,0.00,,,0.00,WeatherTracker,2013-06-01 18:35:00,
2013-06-01 11:40:00,58.1,50.0,30.12,East,90,1.0,1.0,74,0.00,,,0.00,WeatherTracker,2013-06-01 18:40:00,
2013-06-01 11:45:00,58.3,50.0,30.12,South,180,3.0,3.0,74,0.00,,,0.00,WeatherTracker,2013-06-01 18:45:00,
2013-06-01 11:50:00,58.5,50.0,30.12,East,90,3.0,3.0,73,0.00,,,0.00,WeatherTracker,2013-06-01 18:50:00,
2013-06-01 11:55:00,59.0,50.0,30.12,SSE,157,2.0,2.0,73,0.00,,,0.00,WeatherTracker,2013-06-01 18:55:00,
2013-06-01 12:00:00,59.7,51.8,30.12,ESE,112,2.0,6.0,72,0.00,,,0.00,WeatherTracker,2013-06-01 19:00:00,
2013-06-01 12:05:00,60.3,51.8,30.12,South,180,1.0,3.0,71,0.00,,,0.00,WeatherTracker,2013-06-01 19:05:00,
2013-06-01 12:10:00,60.4,50.0,30.12,South,180,3.0,3.0,70,0.00,,,0.00,WeatherTracker,2013-06-01 19:10:00,
2013-06-01 12:15:00,60.6,50.0,30.12,South,180,3.0,3.0,69,0.00,,,0.00,WeatherTracker,2013-06-01 19:15:00,
2013-06-01 12:20:00,60.8,50.0,30.12,SSW,202,2.0,2.0,67,0.00,,,0.00,WeatherTracker,2013-06-01 19:20:00,
2013-06-01 12:25:00,60.6,50.0,30.12,SSW,202,2.0,2.0,67,0.00,,,0.00,WeatherTracker,2013-06-01 19:25:00,
2013-06-01 12:35:00,60.6,50.0,30.09,SE,135,3.0,3.0,66,0.00,,,0.00,WeatherTracker,2013-06-01 19:35:00,
2013-06-01 12:40:00,61.0,50.0,30.09,NNW,337,2.0,2.0,67,0.00,,,0.00,WeatherTracker,2013-06-01 19:40:00,
2013-06-01 12:45:00,61.3,50.0,30.09,South,180,2.0,0.0,66,0.00,,,0.00,WeatherTracker,2013-06-01 19:45:00,
2013-06-01 12:50:00,61.9,50.0,30.09,NW,315,1.0,0.0,66,0.00,,,0.00,WeatherTracker,2013-06-01 19:50:00,
2013-06-01 12:55:00,62.2,50.0,30.09,NW,315,0.0,0.0,65,0.00,,,0.00,WeatherTracker,2013-06-01 19:55:00,
2013-06-01 13:00:00,62.4,51.8,30.09,NW,315,1.0,2.0,65,0.00,,,0.00,WeatherTracker,2013-06-01 20:00:00,
2013-06-01 13:05:00,62.4,50.0,30.09,SE,135,2.0,2.0,64,0.00,,,0.00,WeatherTracker,2013-06-01 20:05:00,
2013-06-01 13:10:00,63.0,51.8,30.09,ENE,67,0.0,0.0,64,0.00,,,0.00,WeatherTracker,2013-06-01 20:10:00,
2013-06-01 13:15:00,63.9,51.8,30.09,WNW,292,1.0,2.0,64,0.00,,,0.00,WeatherTracker,2013-06-01 20:15:00,
2013-06-01 13:20:00,64.0,51.8,30.09,NNW,337,2.0,3.0,63,0.00,,,0.00,WeatherTracker,2013-06-01 20:20:00,
2013-06-01 13:25:00,64.6,51.8,30.09,North,0,0.0,0.0,62,0.00,,,0.00,WeatherTracker,2013-06-01 20:25:00,
2013-06-01 13:30:00,64.4,50.0,30.09,SSW,202,2.0,2.0,60,0.00,,,0.00,WeatherTracker,2013-06-01 20:30:00,
2013-06-01 13:35:00,64.9,51.8,30.12,WNW,292,2.0,4.0,60,0.00,,,0.00,WeatherTracker,2013-06-01 20:35:00,
2013-06-01 13:40:00,64.2,50.0,30.12,North,0,2.0,0.0,58,0.00,,,0.00,WeatherTracker,2013-06-01 20:40:00,
2013-06-01 13:45:00,64.6,50.0,30.12,NNW,337,1.0,2.0,58,0.00,,,0.00,WeatherTracker,2013-06-01 20:45:00,
2013-06-01 13:50:00,64.6,50.0,30.12,NNW,337,4.0,4.0,58,0.00,,,0.00,WeatherTracker,2013-06-01 20:50:00,
2013-06-01 13:55:00,65.3,51.8,30.12,North,0,2.0,0.0,59,0.00,,,0.00,WeatherTracker,2013-06-01 20:55:00,
2013-06-01 14:00:00,66.0,51.8,30.12,NNE,22,0.0,0.0,60,0.00,,,0.00,WeatherTracker,2013-06-01 21:00:00,
2013-06-01 14:05:00,66.0,50.0,30.12,South,180,1.0,2.0,56,0.00,,,0.00,WeatherTracker,2013-06-01 21:05:00,
2013-06-01 14:10:00,66.0,48.2,30.12,ESE,112,3.0,3.0,52,0.00,,,0.00,WeatherTracker,2013-06-01 21:10:00,
2013-06-01 14:15:00,66.0,48.2,30.12,South,180,1.0,2.0,53,0.00,,,0.00,WeatherTracker,2013-06-01 21:15:00,
2013-06-01 14:20:00,66.6,48.2,30.09,SE,135,2.0,5.0,52,0.00,,,0.00,WeatherTracker,2013-06-01 21:20:00,
2013-06-01 14:25:00,66.4,48.2,30.09,South,180,1.0,4.0,50,0.00,,,0.00,WeatherTracker,2013-06-01 21:25:00,
2013-06-01 14:30:00,66.2,46.4,30.09,South,180,3.0,3.0,49,0.00,,,0.00,WeatherTracker,2013-06-01 21:30:00,
2013-06-01 14:35:00,66.7,48.2,30.09,South,180,2.0,2.0,49,0.00,,,0.00,WeatherTracker,2013-06-01 21:35:00,
2013-06-01 14:40:00,66.9,48.2,30.09,SE,135,1.0,3.0,49,0.00,,,0.00,WeatherTracker,2013-06-01 21:40:00,
2013-06-01 14:45:00,66.9,48.2,30.09,SE,135,2.0,2.0,49,0.00,,,0.00,WeatherTracker,2013-06-01 21:45:00,
2013-06-01 14:50:00,66.9,46.4,30.09,SE,135,2.0,4.0,48,0.00,,,0.00,WeatherTracker,2013-06-01 21:50:00,
2013-06-01 14:55:00,66.9,46.4,30.09,South,180,3.0,3.0,46,0.00,,,0.00,WeatherTracker,2013-06-01 21:55:00,
2013-06-01 15:00:00,66.4,44.6,30.09,SE,135,2.0,4.0,46,0.00,,,0.00,WeatherTracker,2013-06-01 22:00:00,
2013-06-01 15:05:00,66.9,46.4,30.09,South,180,3.0,3.0,46,0.00,,,0.00,WeatherTracker,2013-06-01 22:05:00,
2013-06-01 15:10:00,68.0,46.4,30.09,SE,135,1.0,0.0,46,0.00,,,0.00,WeatherTracker,2013-06-01 22:10:00,
2013-06-01 15:15:00,68.7,48.2,30.09,SSE,157,2.0,3.0,46,0.00,,,0.00,WeatherTracker,2013-06-01 22:15:00,
2013-06-01 15:20:00,69.3,48.2,30.09,SSE,157,1.0,1.0,46,0.00,,,0.00,WeatherTracker,2013-06-01 22:20:00,
2013-06-01 15:25:00,69.4,48.2,30.09,SE,135,1.0,2.0,45,0.00,,,0.00,WeatherTracker,2013-06-01 22:25:00,
2013-06-01 15:30:00,69.4,48.2,30.09,NW,315,1.0,2.0,46,0.00,,,0.00,WeatherTracker,2013-06-01 22:30:00,
2013-06-01 15:35:00,68.5,48.2,30.09,NW,315,2.0,3.0,46,0.00,,,0.00,WeatherTracker,2013-06-01 22:35:00,
2013-06-01 15:40:00,68.2,46.4,30.09,NW,315,2.0,3.0,46,0.00,,,0.00,WeatherTracker,2013-06-01 22:40:00,
2013-06-01 15:45:00,68.4,48.2,30.09,NNW,337,2.0,2.0,47,0.00,,,0.00,WeatherTracker,2013-06-01 22:45:00,
2013-06-01 15:50:00,68.5,48.2,30.06,NW,315,1.0,0.0,47,0.00,,,0.00,WeatherTracker,2013-06-01 22:50:00,
2013-06-01 15:55:00,69.1,48.2,30.06,SSW,202,0.0,0.0,47,0.00,,,0.00,WeatherTracker,2013-06-01 22:55:00,
2013-06-01 16:00:00,68.5,48.2,30.06,WNW,292,3.0,3.0,46,0.00,,,0.00,WeatherTracker,2013-06-01 23:00:00,
2013-06-01 16:05:00,67.6,46.4,30.06,WNW,292,3.0,3.0,47,0.00,,,0.00,WeatherTracker,2013-06-01 23:05:00,
2013-06-01 16:10:00,67.8,48.2,30.06,NW,315,1.0,1.0,48,0.00,,,0.00,WeatherTracker,2013-06-01 23:10:00,
2013-06-01 16:15:00,67.8,48.2,30.06,WNW,292,1.0,2.0,48,0.00,,,0.00,WeatherTracker,2013-06-01 23:15:00,
2013-06-01 16:20:00,68.0,48.2,30.06,West,270,3.0,4.0,48,0.00,,,0.00,WeatherTracker,2013-06-01 23:20:00,
2013-06-01 16:25:00,68.2,48.2,30.06,NW,315,2.0,2.0,49,0.00,,,0.00,WeatherTracker,2013-06-01 23:25:00,
2013-06-01 16:30:00,67.8,48.2,30.06,WNW,292,2.0,3.0,48,0.00,,,0.00,WeatherTracker,2013-06-01 23:30:00,
2013-06-01 16:35:00,67.8,48.2,30.06,WNW,292,1.0,2.0,48,0.00,,,0.00,WeatherTracker,2013-06-01 23:35:00,
2013-06-01 16:40:00,67.8,48.2,30.06,WNW,292,2.0,3.0,47,0.00,,,0.00,WeatherTracker,2013-06-01 23:40:00,
2013-06-01 16:45:00,67.8,48.2,30.06,NW,315,1.0,3.0,48,0.00,,,0.00,WeatherTracker,2013-06-01 23:45:00,
2013-06-01 16:50:00,67.6,46.4,30.06,NW,315,2.0,2.0,46,0.00,,,0.00,WeatherTracker,2013-06-01 23:50:00,
2013-06-01 16:55:00,67.8,48.2,30.06,NW,315,1.0,1.0,49,0.00,,,0.00,WeatherTracker,2013-06-01 23:55:00,
2013-06-01 17:00:00,66.9,48.2,30.06,NNE,22,1.0,2.0,51,0.00,,,0.00,WeatherTracker,2013-06-02 00:00:00,
2013-06-01 17:05:00,66.6,48.2,30.06,NE,45,1.0,1.0,52,0.00,,,0.00,WeatherTracker,2013-06-02 00:05:00,
2013-06-01 17:10:00,65.8,48.2,30.06,NE,45,3.0,4.0,55,0.00,,,0.00,WeatherTracker,2013-06-02 00:10:00,
2013-06-01 17:15:00,65.1,48.2,30.06,NE,45,2.0,2.0,56,0.00,,,0.00,WeatherTracker,2013-06-02 00:15:00,
2013-06-01 17:20:00,64.6,48.2,30.06,ENE,67,4.0,4.0,57,0.00,,,0.00,WeatherTracker,2013-06-02 00:20:00,
2013-06-01 17:25:00,64.4,50.0,30.06,ENE,67,1.0,2.0,58,0.00,,,0.00,WeatherTracker,2013-06-02 00:25:00,
2013-06-01 17:30:00,64.6,48.2,30.06,NE,45,1.0,1.0,57,0.00,,,0.00,WeatherTracker,2013-06-02 00:30:00,
2013-06-01 17:35:00,64.8,50.0,30.06,NNE,22,1.0,0.0,57,0.00,,,0.00,WeatherTracker,2013-06-02 00:35:00,
2013-06-01 17:40:00,64.9,50.0,30.06,NE,45,0.0,0.0,57,0.00,,,0.00,WeatherTracker,2013-06-02 00:40:00,
2013-06-01 17:45:00,65.1,50.0,30.06,ENE,67,0.0,0.0,57,0.00,,,0.00,WeatherTracker,2013-06-02 00:45:00,
2013-06-01 17:50:00,64.9,48.2,30.06,SE,135,1.0,2.0,56,0.00,,,0.00,WeatherTracker,2013-06-02 00:50:00,
2013-06-01 17:55:00,64.4,48.2,30.06,NNE,22,0.0,0.0,55,0.00,,,0.00,WeatherTracker,2013-06-02 00:55:00,
2013-06-01 18:00:00,64.4,48.2,30.06,NE,45,1.0,0.0,55,0.00,,,0.00,WeatherTracker,2013-06-02 01:00:00,
2013-06-01 18:05:00,64.2,48.2,30.06,ENE,67,0.0,0.0,55,0.00,,,0.00,WeatherTracker,2013-06-02 01:05:00,
2013-06-01 18:10:00,64.2,48.2,30.06,ENE,67,0.0,2.0,55,0.00,,,0.00,WeatherTracker,2013-06-02 01:10:00,
2013-06-01 18:15:00,63.9,48.2,30.06,North,0,1.0,0.0,56,0.00,,,0.00,WeatherTracker,2013-06-02 01:15:00,
2013-06-01 18:20:00,63.3,48.2,30.06,NNE,22,0.0,0.0,57,0.00,,,0.00,WeatherTracker,2013-06-02 01:20:00,
2013-06-01 18:25:00,63.1,48.2,30.06,North,0,1.0,1.0,57,0.00,,,0.00,WeatherTracker,2013-06-02 01:25:00,
2013-06-01 18:30:00,63.0,48.2,30.06,NE,45,0.0,2.0,58,0.00,,,0.00,WeatherTracker,2013-06-02 01:30:00,
2013-06-01 18:35:00,62.4,50.0,30.06,NNW,337,4.0,5.0,62,0.00,,,0.00,WeatherTracker,2013-06-02 01:35:00,
2013-06-01 18:40:00,62.1,50.0,30.06,NNE,22,1.0,1.0,63,0.00,,,0.00,WeatherTracker,2013-06-02 01:40:00,
2013-06-01 18:45:00,61.9,50.0,30.06,NNE,22,1.0,3.0,65,0.00,,,0.00,WeatherTracker,2013-06-02 01:45:00,
2013-06-01 18:50:00,61.7,50.0,30.03,East,90,2.0,3.0,66,0.00,,,0.00,WeatherTracker,2013-06-02 01:50:00,
2013-06-01 18:55:00,61.7,50.0,30.03,ENE,67,3.0,3.0,66,0.00,,,0.00,WeatherTracker,2013-06-02 01:55:00,
2013-06-01 19:00:00,61.7,50.0,30.03,ENE,67,2.0,2.0,65,0.00,,,0.00,WeatherTracker,2013-06-02 02:00:00,
2013-06-01 19:05:00,61.7,50.0,30.03,NNE,22,1.0,2.0,65,0.00,,,0.00,WeatherTracker,2013-06-02 02:05:00,
2013-06-01 19:10:00,61.7,50.0,30.03,SSW,202,1.0,2.0,64,0.00,,,0.00,WeatherTracker,2013-06-02 02:10:00,
2013-06-01 19:15:00,61.9,48.2,30.03,NE,45,1.0,2.0,61,0.00,,,0.00,WeatherTracker,2013-06-02 02:15:00,
2013-06-01 19:20:00,61.5,48.2,30.03,NNE,22,4.0,6.0,59,0.00,,,0.00,WeatherTracker,2013-06-02 02:20:00,
2013-06-01 19:25:00,61.5,48.2,30.03,NE,45,2.0,2.0,61,0.00,,,0.00,WeatherTracker,2013-06-02 02:25:00,
2013-06-01 19:30:00,61.3,48.2,30.03,NNE,22,2.0,2.0,63,0.00,,,0.00,WeatherTracker,2013-06-02 02:30:00,
2013-06-01 19:35:00,61.2,48.2,30.03,NE,45,3.0,3.0,60,0.00,,,0.00,WeatherTracker,2013-06-02 02:35:00,
2013-06-01 19:40:00,61.0,48.2,30.03,NE,45,4.0,4.0,61,0.00,,,0.00,WeatherTracker,2013-06-02 02:40:00,
2013-06-01 19:45:00,61.0,48.2,30.03,WNW,292,1.0,3.0,63,0.00,,,0.00,WeatherTracker,2013-06-02 02:45:00,
2013-06-01 19:50:00,60.8,48.2,30.03,NE,45,3.0,3.0,64,0.00,,,0.00,WeatherTracker,2013-06-02 02:50:00,
2013-06-01 19:55:00,60.6,50.0,30.03,NNE,22,3.0,3.0,66,0.00,,,0.00,WeatherTracker,2013-06-02 02:55:00,
2013-06-01 20:00:00,60.6,50.0,30.03,NE,45,2.0,3.0,66,0.00,,,0.00,WeatherTracker,2013-06-02 03:00:00,
2013-06-01 20:05:00,60.4,48.2,30.03,NNE,22,3.0,3.0,66,0.00,,,0.00,WeatherTracker,2013-06-02 03:05:00,
2013-06-01 20:10:00,60.4,48.2,30.03,NE,45,4.0,4.0,66,0.00,,,0.00,WeatherTracker,2013-06-02 03:10:00,
2013-06-01 20:15:00,60.3,48.2,30.03,NE,45,0.0,2.0,65,0.00,,,0.00,WeatherTracker,2013-06-02 03:15:00,
2013-06-01 20:20:00,59.9,48.2,30.03,NE,45,1.0,3.0,66,0.00,,,0.00,WeatherTracker,2013-06-02 03:20:00,
2013-06-01 20:25:00,59.5,48.2,30.03,NNE,22,2.0,2.0,66,0.00,,,0.00,WeatherTracker,2013-06-02 03:25:00,
2013-06-01 20:30:00,59.2,48.2,30.03,NNE,22,2.0,2.0,67,0.00,,,0.00,WeatherTracker,2013-06-02 03:30:00,
2013-06-01 20:35:00,58.8,48.2,30.00,NNE,22,2.0,2.0,69,0.00,,,0.00,WeatherTracker,2013-06-02 03:35:00,
2013-06-01 20:40:00,58.5,48.2,30.00,NNE,22,0.0,1.0,69,0.00,,,0.00,WeatherTracker,2013-06-02 03:40:00,
2013-06-01 20:45:00,58.3,48.2,30.00,ENE,67,2.0,2.0,69,0.00,,,0.00,WeatherTracker,2013-06-02 03:45:00,
2013-06-01 20:50:00,57.9,48.2,30.00,ENE,67,2.0,2.0,69,0.00,,,0.00,WeatherTracker,2013-06-02 03:50:00,
2013-06-01 20:55:00,57.6,48.2,30.00,ENE,67,1.0,1.0,70,0.00,,,0.00,WeatherTracker,2013-06-02 03:55:00,
2013-06-01 21:00:00,57.4,48.2,30.00,NE,45,1.0,2.0,71,0.00,,,0.00,WeatherTracker,2013-06-02 04:00:00,
2013-06-01 21:05:00,57.2,48.2,30.00,NNE,22,3.0,3.0,71,0.00,,,0.00,WeatherTracker,2013-06-02 04:05:00,
2013-06-01 21:10:00,57.2,48.2,30.00,NNE,22,3.0,3.0,71,0.00,,,0.00,WeatherTracker,2013-06-02 04:10:00,
2013-06-01 21:15:00,57.0,48.2,30.00,NNW,337,3.0,3.0,72,0.00,,,0.00,WeatherTracker,2013-06-02 04:15:00,
2013-06-01 21:20:00,56.8,48.2,30.00,NNE,22,2.0,2.0,72,0.00,,,0.00,WeatherTracker,2013-06-02 04:20:00,
2013-06-01 21:25:00,56.8,48.2,30.00,NNE,22,2.0,2.0,72,0.00,,,0.00,WeatherTracker,2013-06-02 04:25:00,
2013-06-01 21:30:00,56.8,48.2,30.00,NNE,22,1.0,2.0,72,0.00,,,0.00,WeatherTracker,2013-06-02 04:30:00,
2013-06-01 21:35:00,56.7,48.2,30.03,NE,45,2.0,5.0,73,0.00,,,0.00,WeatherTracker,2013-06-02 04:35:00,
2013-06-01 21:40:00,56.7,48.2,30.03,ENE,67,1.0,0.0,73,0.00,,,0.00,WeatherTracker,2013-06-02 04:40:00,
2013-06-01 21:45:00,56.7,48.2,30.03,NNE,22,0.0,0.0,73,0.00,,,0.00,WeatherTracker,2013-06-02 04:45:00,
2013-06-01 21:50:00,56.8,48.2,30.03,NNE,22,0.0,0.0,72,0.00,,,0.00,WeatherTracker,2013-06-02 04:50:00,
2013-06-01 21:55:00,56.8,48.2,30.03,NNE,22,4.0,4.0,72,0.00,,,0.00,WeatherTracker,2013-06-02 04:55:00,
2013-06-01 22:00:00,56.8,48.2,30.03,NNE,22,1.0,0.0,72,0.00,,,0.00,WeatherTracker,2013-06-02 05:00:00,
2013-06-01 22:05:00,56.8,48.2,30.06,ESE,112,1.0,0.0,73,0.00,,,0.00,WeatherTracker,2013-06-02 05:05:00,
2013-06-01 22:10:00,56.7,48.2,30.06,ENE,67,1.0,1.0,73,0.00,,,0.00,WeatherTracker,2013-06-02 05:10:00,
2013-06-01 22:15:00,56.7,48.2,30.06,North,0,2.0,2.0,73,0.00,,,0.00,WeatherTracker,2013-06-02 05:15:00,
2013-06-01 22:20:00,56.5,48.2,30.03,NNE,22,1.0,5.0,73,0.00,,,0.00,WeatherTracker,2013-06-02 05:20:00,
2013-06-01 22:25:00,56.5,48.2,30.03,ESE,112,1.0,0.0,73,0.00,,,0.00,WeatherTracker,2013-06-02 05:25:00,
2013-06-01 22:30:00,56.1,48.2,30.03,East,90,1.0,1.0,73,0.00,,,0.00,WeatherTracker,2013-06-02 05:30:00,
2013-06-01 22:35:00,55.9,48.2,30.03,North,0,0.0,1.0,74,0.00,,,0.00,WeatherTracker,2013-06-02 05:35:00,
2013-06-01 22:40:00,55.6,48.2,30.03,NNE,22,0.0,0.0,74,0.00,,,0.00,WeatherTracker,2013-06-02 05:40:00,
2013-06-01 22:45:00,55.2,48.2,30.03,ENE,67,0.0,0.0,75,0.00,,,0.00,WeatherTracker,2013-06-02 05:45:00,
2013-06-01 22:50:00,55.0,48.2,30.03,ENE,67,0.0,0.0,75,0.00,,,0.00,WeatherTracker,2013-06-02 05:50:00,
2013-06-01 22:55:00,54.7,48.2,30.03,NNE,22,0.0,0.0,75,0.00,,,0.00,WeatherTracker,2013-06-02 05:55:00,
2013-06-01 23:00:00,54.5,48.2,30.03,ESE,112,0.0,0.0,76,0.00,,,0.00,WeatherTracker,2013-06-02 06:00:00,
2013-06-01 23:05:00,54.5,48.2,30.03,ENE,67,0.0,0.0,77,0.00,,,0.00,WeatherTracker,2013-06-02 06:05:00,
2013-06-01 23:10:00,54.7,48.2,30.03,ENE,67,1.0,0.0,78,0.00,,,0.00,WeatherTracker,2013-06-02 06:10:00,
2013-06-01 23:15:00,54.7,48.2,30.03,NE,45,1.0,1.0,78,0.00,,,0.00,WeatherTracker,2013-06-02 06:15:00,
2013-06-01 23:20:00,54.7,48.2,30.06,ENE,67,1.0,1.0,78,0.00,,,0.00,WeatherTracker,2013-06-02 06:20:00,
2013-06-01 23:25:00,54.7,48.2,30.06,East,90,0.0,1.0,78,0.00,,,0.00,WeatherTracker,2013-06-02 06:25:00,
2013-06-01 23:30:00,54.5,48.2,30.06,ESE,112,0.0,0.0,77,0.00,,,0.00,WeatherTracker,2013-06-02 06:30:00,
2013-06-01 23:35:00,54.5,48.2,30.03,East,90,0.0,0.0,77,0.00,,,0.00,WeatherTracker,2013-06-02 06:35:00,
2013-06-01 23:40:00,54.3,48.2,30.03,East,90,0.0,0.0,77,0.00,,,0.00,WeatherTracker,2013-06-02 06:40:00,
2013-06-01 23:45:00,54.1,48.2,30.03,SSE,157,0.0,0.0,77,0.00,,,0.00,WeatherTracker,2013-06-02 06:45:00,
2013-06-01 23:50:00,54.0,48.2,30.03,East,90,0.0,0.0,78,0.00,,,0.00,WeatherTracker,2013-06-02 06:50:00,
2013-06-01 23:55:00,53.8,48.2,30.03,East,90,0.0,0.0,78,0.00,,,0.00,WeatherTracker,2013-06-02 06:55:00,